Time,TemperatureF,DewpointF,PressureIn,WindDirection,WindDirectionDegrees,WindSpeedMPH,WindSpeedGustMPH,Humidity,HourlyPrecipIn,Conditions,Clouds,dailyrainin,SolarRadiationWatts/m^2,SoftwareType,DateUTC
2013-09-23 00:22:00,46.0,38.0,-100.00,SE,141,1.0,8.0,73,0.00,,,0.22,0.000000,,2013-09-23 06:22:00,
2013-09-23 00:32:00,46.0,38.0,-100.00,SE,141,1.0,8.0,73,0.00,,,0.22,0.000000,,2013-09-23 06:32:00,
2013-09-23 00:42:00,46.0,38.0,-100.00,SE,141,1.0,8.0,73,0.00,,,0.22,0.000000,,2013-09-23 06:42:00,
2013-09-23 00:52:00,46.0,38.0,-100.00,SE,141,1.0,8.0,73,0.00,,,0.22,0.000000,,2013-09-23 06:52:00,
2013-09-23 01:22:00,46.0,38.0,-100.00,SW,220,4.0,10.0,73,0.00,,,0.22,0.000000,,2013-09-23 07:22:00,
2013-09-23 01:32:00,46.0,38.0,-100.00,SW,220,4.0,10.0,73,0.00,,,0.22,0.000000,,2013-09-23 07:32:00,
2013-09-23 01:42:00,46.0,38.0,-100.00,SW,220,4.0,10.0,73,0.00,,,0.22,0.000000,,2013-09-23 07:42:00,
2013-09-23 01:52:00,46.0,38.0,-100.00,SW,220,4.0,10.0,73,0.00,,,0.22,0.000000,,2013-09-23 07:52:00,
2013-09-23 02:22:00,46.0,41.0,-100.00,SSW,212,4.0,12.0,81,0.00,,,0.21,0.000000,,2013-09-23 08:22:00,
2013-09-23 02:32:00,46.0,41.0,-100.00,SSW,212,4.0,12.0,81,0.00,,,0.21,0.000000,,2013-09-23 08:32:00,
2013-09-23 02:42:00,46.0,41.0,-100.00,SSW,212,4.0,12.0,81,0.00,,,0.21,0.000000,,2013-09-23 08:42:00,
2013-09-23 02:52:00,46.0,41.0,-100.00,SSW,212,4.0,12.0,81,0.00,,,0.21,0.000000,,2013-09-23 08:52:00,
2013-09-23 03:21:00,45.0,38.0,-100.00,SSW,203,5.0,18.0,77,0.00,,,0.21,0.000000,,2013-09-23 09:21:00,
2013-09-23 03:33:00,45.0,38.0,-100.00,SSW,203,5.0,18.0,77,0.00,,,0.21,0.000000,,2013-09-23 09:33:00,
2013-09-23 03:42:00,45.0,38.0,-100.00,SSW,203,5.0,18.0,77,0.00,,,0.21,0.000000,,2013-09-23 09:42:00,
2013-09-23 03:53:00,45.0,38.0,-100.00,SSW,203,5.0,18.0,77,0.00,,,0.21,0.000000,,2013-09-23 09:53:00,
2013-09-23 04:23:00,45.0,35.0,-100.00,NE,41,2.0,15.0,69,0.00,,,0.21,0.000000,,2013-09-23 10:23:00,
2013-09-23 04:33:00,45.0,35.0,-100.00,NE,41,2.0,15.0,69,0.00,,,0.21,0.000000,,2013-09-23 10:33:00,
2013-09-23 04:42:00,45.0,35.0,-100.00,NE,41,2.0,15.0,69,0.00,,,0.21,0.000000,,2013-09-23 10:42:00,
2013-09-23 04:52:00,45.0,35.0,-100.00,NE,41,2.0,15.0,69,0.00,,,0.21,0.000000,,2013-09-23 10:52:00,
2013-09-23 05:21:00,44.0,34.0,-100.00,SW,225,1.0,11.0,67,0.00,,,0.21,0.000000,,2013-09-23 11:21:00,
2013-09-23 05:33:00,44.0,34.0,-100.00,SW,225,1.0,11.0,67,0.00,,,0.21,0.000000,,2013-09-23 11:33:00,
2013-09-23 05:42:00,44.0,34.0,-100.00,SW,225,1.0,11.0,67,0.00,,,0.21,0.000000,,2013-09-23 11:42:00,
2013-09-23 05:52:00,44.0,34.0,-100.00,SW,225,1.0,11.0,67,0.00,,,0.21,0.000000,,2013-09-23 11:52:00,
2013-09-23 06:22:00,43.0,37.0,-100.00,SSW,210,3.0,13.0,80,0.00,,,0.21,0.000000,,2013-09-23 12:22:00,
2013-09-23 06:32:00,43.0,37.0,-100.00,SSW,210,3.0,13.0,80,0.00,,,0.21,0.000000,,2013-09-23 12:32:00,
2013-09-23 06:42:00,43.0,37.0,-100.00,SSW,210,3.0,13.0,80,0.00,,,0.21,0.000000,,2013-09-23 12:42:00,
2013-09-23 06:52:00,43.0,37.0,-100.00,SSW,210,3.0,13.0,80,0.00,,,0.21,0.000000,,2013-09-23 12:52:00,
2013-09-23 07:21:00,42.0,36.0,-100.00,NNW,342,6.0,15.0,79,0.00,,,0.21,0.000000,,2013-09-23 13:21:00,
2013-09-23 07:32:00,42.0,36.0,-100.00,NNW,342,6.0,15.0,79,0.00,,,0.21,0.000000,,2013-09-23 13:32:00,
2013-09-23 07:42:00,42.0,36.0,-100.00,NNW,342,6.0,15.0,79,0.00,,,0.21,0.000000,,2013-09-23 13:42:00,
2013-09-23 07:52:00,42.0,36.0,-100.00,NNW,342,6.0,15.0,79,0.00,,,0.21,0.000000,,2013-09-23 13:52:00,
2013-09-23 08:22:00,41.0,34.0,-100.00,NNW,342,3.0,17.0,76,0.00,,,0.21,8.000000,,2013-09-23 14:22:00,
2013-09-23 08:32:00,41.0,34.0,-100.00,NNW,342,3.0,17.0,76,0.00,,,0.21,8.000000,,2013-09-23 14:32:00,
2013-09-23 08:42:00,41.0,34.0,-100.00,NNW,342,3.0,17.0,76,0.00,,,0.21,8.000000,,2013-09-23 14:42:00,
2013-09-23 08:52:00,41.0,34.0,-100.00,NNW,342,3.0,17.0,76,0.00,,,0.21,8.000000,,2013-09-23 14:52:00,
2013-09-23 09:21:00,44.0,36.0,-100.00,WSW,243,4.0,15.0,72,0.01,,,0.22,37.000000,,2013-09-23 15:21:00,
2013-09-23 09:33:00,44.0,36.0,-100.00,WSW,243,4.0,15.0,72,0.01,,,0.22,37.000000,,2013-09-23 15:33:00,
2013-09-23 09:43:00,44.0,36.0,-100.00,WSW,243,4.0,15.0,72,0.01,,,0.22,37.000000,,2013-09-23 15:43:00,
2013-09-23 09:54:00,44.0,36.0,-100.00,WSW,243,4.0,15.0,72,0.01,,,0.22,37.000000,,2013-09-23 15:54:00,
2013-09-23 10:23:00,41.0,36.0,-100.00,West,261,2.0,12.0,83,0.00,,,0.21,92.000000,,2013-09-23 16:23:00,
2013-09-23 10:33:00,41.0,36.0,-100.00,West,261,2.0,12.0,83,0.00,,,0.21,92.000000,,2013-09-23 16:33:00,
2013-09-23 10:43:00,41.0,36.0,-100.00,West,261,2.0,12.0,83,0.00,,,0.21,92.000000,,2013-09-23 16:43:00,
2013-09-23 10:53:00,41.0,36.0,-100.00,West,261,2.0,12.0,83,0.00,,,0.21,92.000000,,2013-09-23 16:53:00,
2013-09-23 11:24:00,45.0,39.0,-100.00,SSE,165,6.0,15.0,78,0.01,,,0.17,271.000000,,2013-09-23 17:24:00,
2013-09-23 11:34:00,45.0,39.0,-100.00,SSE,165,6.0,15.0,78,0.01,,,0.17,271.000000,,2013-09-23 17:34:00,
2013-09-23 11:42:00,45.0,39.0,-100.00,SSE,165,6.0,15.0,78,0.01,,,0.17,271.000000,,2013-09-23 17:42:00,
2013-09-23 11:52:00,45.0,39.0,-100.00,SSE,165,6.0,15.0,78,0.01,,,0.17,271.000000,,2013-09-23 17:52:00,
2013-09-23 12:21:00,47.0,33.0,-100.00,ESE,119,6.0,13.0,59,0.00,,,0.11,572.000000,,2013-09-23 18:21:00,
2013-09-23 12:33:00,47.0,33.0,-100.00,ESE,119,6.0,13.0,59,0.00,,,0.11,572.000000,,2013-09-23 18:33:00,
2013-09-23 12:42:00,47.0,33.0,-100.00,ESE,119,6.0,13.0,59,0.00,,,0.11,572.000000,,2013-09-23 18:42:00,
2013-09-23 12:52:00,47.0,33.0,-100.00,ESE,119,6.0,13.0,59,0.00,,,0.11,572.000000,,2013-09-23 18:52:00,
2013-09-23 13:22:00,44.0,35.0,-100.00,ENE,71,4.0,19.0,71,0.00,,,0.10,406.000000,,2013-09-23 19:22:00,
2013-09-23 13:32:00,44.0,35.0,-100.00,ENE,71,4.0,19.0,71,0.00,,,0.10,406.000000,,2013-09-23 19:32:00,
2013-09-23 13:42:00,44.0,35.0,-100.00,ENE,71,4.0,19.0,71,0.00,,,0.10,406.000000,,2013-09-23 19:42:00,
2013-09-23 13:53:00,44.0,35.0,-100.00,ENE,71,4.0,19.0,71,0.00,,,0.10,406.000000,,2013-09-23 19:53:00,
2013-09-23 14:21:00,50.0,35.0,-100.00,WNW,301,3.0,11.0,56,0.00,,,0.10,327.000000,,2013-09-23 20:21:00,
2013-09-23 14:32:00,50.0,35.0,-100.00,WNW,301,3.0,11.0,56,0.00,,,0.10,327.000000,,2013-09-23 20:32:00,
2013-09-23 14:42:00,50.0,35.0,-100.00,WNW,301,3.0,11.0,56,0.00,,,0.10,327.000000,,2013-09-23 20:42:00,
2013-09-23 14:52:00,50.0,35.0,-100.00,WNW,301,3.0,11.0,56,0.00,,,0.10,327.000000,,2013-09-23 20:52:00,
2013-09-23 15:23:00,48.0,33.0,-100.00,NW,322,6.0,13.0,56,0.01,,,0.11,493.000000,,2013-09-23 21:23:00,
2013-09-23 15:34:00,48.0,33.0,-100.00,NW,322,6.0,13.0,56,0.01,,,0.11,493.000000,,2013-09-23 21:34:00,
2013-09-23 15:44:00,48.0,33.0,-100.00,NW,322,6.0,13.0,56,0.01,,,0.11,493.000000,,2013-09-23 21:44:00,
2013-09-23 15:54:00,48.0,33.0,-100.00,NW,322,6.0,13.0,56,0.01,,,0.11,493.000000,,2013-09-23 21:54:00,
2013-09-23 16:23:00,53.0,35.0,-100.00,ENE,61,2.0,12.0,50,0.00,,,0.11,582.000000,,2013-09-23 22:23:00,
2013-09-23 16:33:00,53.0,35.0,-100.00,ENE,61,2.0,12.0,50,0.00,,,0.11,582.000000,,2013-09-23 22:33:00,
2013-09-23 16:43:00,53.0,35.0,-100.00,ENE,61,2.0,12.0,50,0.00,,,0.11,582.000000,,2013-09-23 22:43:00,
2013-09-23 16:54:00,53.0,35.0,-100.00,ENE,61,2.0,12.0,50,0.00,,,0.11,582.000000,,2013-09-23 22:54:00,
2013-09-23 17:22:00,53.0,31.0,-100.00,NW,304,4.0,11.0,42,0.00,,,-99.99,417.000000,,2013-09-23 23:22:00,
2013-09-23 17:34:00,53.0,31.0,-100.00,NW,304,4.0,11.0,42,0.00,,,-99.99,417.000000,,2013-09-23 23:34:00,
2013-09-23 17:42:00,53.0,31.0,-100.00,NW,304,4.0,11.0,42,0.00,,,-99.99,417.000000,,2013-09-23 23:42:00,
2013-09-23 17:53:00,53.0,31.0,-100.00,NW,304,4.0,11.0,42,0.00,,,-99.99,417.000000,,2013-09-23 23:53:00,
2013-09-23 18:22:00,51.0,31.0,-100.00,NW,319,4.0,13.0,47,0.00,,,0.07,273.000000,,2013-09-24 00:22:00,
2013-09-23 18:32:00,51.0,31.0,-100.00,NW,319,4.0,13.0,47,0.00,,,0.07,273.000000,,2013-09-24 00:32:00,
2013-09-23 18:42:00,51.0,31.0,-100.00,NW,319,4.0,13.0,47,0.00,,,0.07,273.000000,,2013-09-24 00:42:00,
2013-09-23 18:52:00,51.0,31.0,-100.00,NW,319,4.0,13.0,47,0.00,,,0.07,273.000000,,2013-09-24 00:52:00,
2013-09-23 19:21:00,48.0,33.0,-100.00,NNE,16,0.0,13.0,56,0.00,,,0.06,92.000000,,2013-09-24 01:21:00,
2013-09-23 19:32:00,48.0,33.0,-100.00,NNE,16,0.0,13.0,56,0.00,,,0.06,92.000000,,2013-09-24 01:32:00,
2013-09-23 19:43:00,48.0,33.0,-100.00,NNE,16,0.0,13.0,56,0.00,,,0.06,92.000000,,2013-09-24 01:43:00,
2013-09-23 19:52:00,48.0,33.0,-100.00,NNE,16,0.0,13.0,56,0.00,,,0.06,92.000000,,2013-09-24 01:52:00,
2013-09-23 20:22:00,48.0,34.0,-100.00,East,97,0.0,5.0,57,0.00,,,0.04,8.000000,,2013-09-24 02:22:00,
2013-09-23 20:32:00,48.0,34.0,-100.00,East,97,0.0,5.0,57,0.00,,,0.04,8.000000,,2013-09-24 02:32:00,
2013-09-23 20:42:00,48.0,34.0,-100.00,East,97,0.0,5.0,57,0.00,,,0.04,8.000000,,2013-09-24 02:42:00,
2013-09-23 20:52:00,48.0,34.0,-100.00,East,97,0.0,5.0,57,0.00,,,0.04,8.000000,,2013-09-24 02:52:00,
2013-09-23 21:22:00,47.0,32.0,-100.00,West,259,0.0,3.0,55,0.00,,,0.03,0.000000,,2013-09-24 03:22:00,
2013-09-23 21:35:00,47.0,32.0,-100.00,West,259,0.0,3.0,55,0.00,,,0.03,0.000000,,2013-09-24 03:35:00,
2013-09-23 21:44:00,47.0,32.0,-100.00,West,259,0.0,3.0,55,0.00,,,0.03,0.000000,,2013-09-24 03:44:00,
2013-09-23 21:54:00,47.0,32.0,-100.00,West,259,0.0,3.0,55,0.00,,,0.03,0.000000,,2013-09-24 03:54:00,
2013-09-23 22:24:00,49.0,34.0,-100.00,ESE,104,0.0,4.0,55,0.00,,,0.03,0.000000,,2013-09-24 04:24:00,
2013-09-23 22:33:00,49.0,34.0,-100.00,ESE,104,0.0,4.0,55,0.00,,,0.03,0.000000,,2013-09-24 04:33:00,
2013-09-23 22:44:00,49.0,34.0,-100.00,ESE,104,0.0,4.0,55,0.00,,,0.03,0.000000,,2013-09-24 04:44:00,
2013-09-23 23:22:00,48.0,33.0,-100.00,NNE,19,0.0,0.0,56,0.00,,,-99.99,0.000000,,2013-09-24 05:22:00,
2013-09-23 23:34:00,48.0,33.0,-100.00,NNE,19,0.0,0.0,56,0.00,,,-99.99,0.000000,,2013-09-24 05:34:00,
2013-09-23 23:43:00,48.0,33.0,-100.00,NNE,19,0.0,0.0,56,0.00,,,-99.99,0.000000,,2013-09-24 05:43:00,
2013-09-23 23:53:00,48.0,33.0,-100.00,NNE,19,0.0,0.0,56,0.00,,,-99.99,0.000000,,2013-09-24 05:53:00,